Probability
0 0 0 0 0 0 0 0 0 0 0 0 0 0 0 0 0 0 0 0 0 0 0 0 0 0 0 0 0 0 0 0 0 0 0 0 0 0 0 0 0 0 0 0
0 0 0 0 0 0 0 0 0 0 0 0 0 0 0 0 0 0 0 0 0 0 0 0 0 0 0 0 0 0 0 0 0 0 0 0 0 0 0 0 0 0 0 0
0 0 0 0 0 0 0 0 0 0 0 0 0 0 0 0 0 0 0 0 0 0 0 0 0 0 0 0 0 0 0 0 0 0 0 0 0 0 0 0 0 0 0 0
0 0 0 0 0 0 0 0 0 0 0 0 0 0 0 0 0 0 0 0 0 0 0 0 0 0 0 0 0 0 0 0 0 0 0 0 0 0 0 0 0 0 0 0
0 0 0 0 0 0 0 0 0 0 0 0 0 0 0 0 0 0 0 0 0 0 0 0 0 0 0 0 0 0 0 0 0 0 0 0 0 0 0 0 0 0 0 0
0 0 0 0 0 0 0 0 0 0 0 0 0 0 0 0 0 0 0 0 0 0 0 0 0 0 0 0 0 0 0 0 0 0 0 0 0 0 0 0 0 0 0 0
0 0 0 0 0 0 0 0 0 0 0 0 0 0 0 0 0 0 0 0 0 0 0 0 0 0 0 0 0 0 0 0 0 0 0 0 0 0 0 0 0 0 0 0
0 0 0 0 0 0 0 0 0 0 0 0 0 0 0 0 0 0 0 0 0 0 0 0 0 0 0 0 0 0 0 0 0 0 0 0 0 0 0 0 0 0 0 0
0 0 0 0 0 0 0 0 0 0 0 0 0 0 0 0 0 0 0 0 0 0 0 0 0 0 0 0 0 0 0 0 0 0 0 0 0 0 0 0 0 0 0 0
0 0 0 0 0 0 0 0 0 0 0 0 0 0 0 0 0 0 0 0 0 0 0 0 0 0 0 0 0 0 0 0 0 0 0 0 0 0 0 0 0 0 0 0
0 0 0 0 0 0 0 0 0 0 0 0 0 0 0 0 0 0 0 0 0 0 0 0 0 0 0 0 0 0 0 0 0 0 0 0 0 0 0 0 0 0 0 0
0 0 0 0 0 0 0 0 0 0 0 0 0 0 0 0 0 0 0 0 0 0 0 0 0 0 0 0 0 0 0 0 0 0 0 0 0 0 0 0 0 0 0 0
0 0 0 0 0 0 0 0 0 0 0 0 0 0 0 0 0 0 0 0 0 0 0 0 0 0 0 0 0 0 0 0 0 0 0 0 0 0 0 0 0 0 0 0
0 0 0 0 0 0 0 0 0 0 0 0 0 0 0 0 0 0 0 0 0 0 0 0 0 0 0 0 0 0 0 0 0 0 0 0 0 0 0 0 0 0 0 0
0 0 0 0 0 0 0 0 0 0 0 0 0 0 0 0 0 0 0 0 0 0 0 0 0 0 0 0 0 0 0 0 0 0 0 0 0 0 0 0 0 0 0 0
0 0 0 0 0 0 0 0 0 0 0 0 0 0 0 0 0 0 0 0 0 0 0 0 0 0 0 0 0 0 0 0 0 0 0 0 0 0 0 0 0 0 0 0
0 0 0 0 0 0 0 0 0 0 0 0 0 0 0 0 0 0 0 0 0 0 0 0 0 0 0 0 0 0 0 0 0 0 0 0 0 0 0 0 0 0 0 0
0 0 0 0 0 0 0 0 0 0 0 0 0 0 0 0 0 0 0 0 0 0 0 0 0 0 0 0 0 0 0 0 0 0 0 0 0 0 0 0 0 0 0 0
0 0 0 0 0 0 0 0 0 0 0 0 0 0 0 0 0 0 0 0 0 0 0 0 0 0 0 0 0 0 0 0 0 0 0 0 0 0 0 0 0 0 0 0
0 0 0 0 0 0 0 0 0 0 0 0 0 0 0 0 0 0 0 0 0 0 0 0 0 0 0 0 0 0 0 0 0 0 0 0 0 0 0 0 0 0 0 0
0 0 0 0 0 0 0 0 0 0 0 0 0 0 0 0 0 0 0 0 0 0 0 0 0 0 0 0 0 0 0 0 0 0 0 0 0 0 0 0 0 0 0 0
0 0 0 0 0 0 0 0 0 0 0 0 0 0 0 0 0 0 0 0 0 0 0 0 0 0 0 0 0 0 0 0 0 0 0 0 0 0 0 0 0 0 0 0
0 0 0 0 0 0 0 0 0 0 0 0 0 0 0 0 0 0 0 0 0 0 0 0 0 0 0 0 0 0 0 0 0 0 0 0 0 0 0 0 0 0 0 0
0 0 0 0 0 0 0 0 0 0 0 0 0 0 0 0 0 0 0 0 0 0 0 0 0 0 0 0 0 0 0 0 0 0 0 0 0 0 0 0 0 0 0 0
0 0 0 0 0 0 0 0 0 0 0 0 0 0 0 0 0 0 0 0 0 0 0 0 0 0 0 0 0 0 0 0 0 0 0 0 0 0 0 0 0 0 0 0
0 0 0 0 0 0 0 0 0 0 0 0 0 0 0 0 0 0 0 0 0 0 0 0 0 0 0 0 0 0 0 0 0 0 0 0 0 0 0 0 0 0 0 0
0 0 0 0 0 0 0 0 0 0 0 0 0 0 0 0 0 0 0 0 0 0 0 0 0 0 0 0 0 0 0 0 0 0 0 0 0 0 0 0 0 0 0 0
Height
5824 5818 5813 5807 5802 5796 5792 5787 5784 5781 5778 5776 5775 5775 5775 5776 5778 5779 5780 5781 5781 5781 5781 5780 5780 5780 5780 5781 5781 5781 5782 5783 5784 5785 5786 5787 5787 5787 5787 5786 5786 5785 5784 5783
5827 5821 5817 5811 5807 5802 5798 5794 5790 5787 5785 5782 5781 5780 5781 5781 5782 5782 5783 5783 5784 5784 5784 5784 5783 5783 5783 5783 5783 5783 5784 5784 5784 5784 5785 5785 5784 5784 5783 5782 5781 5780 5779 5777
5830 5825 5820 5816 5812 5809 5805 5800 5797 5794 5792 5789 5788 5787 5787 5787 5787 5787 5787 5787 5787 5787 5786 5786 5786 5786 5786 5786 5785 5785 5785 5784 5784 5784 5783 5782 5782 5781 5779 5778 5777 5775 5773 5771
5832 5829 5824 5822 5816 5813 5811 5807 5804 5801 5798 5796 5794 5793 5793 5792 5792 5792 5792 5791 5791 5790 5790 5789 5789 5788 5788 5787 5787 5786 5785 5784 5783 5782 5781 5780 5778 5777 5775 5773 5770 5768 5766 5764
5834 5830 5827 5824 5820 5817 5815 5813 5811 5809 5806 5804 5802 5800 5799 5799 5798 5797 5796 5796 5795 5794 5793 5793 5792 5791 5790 5789 5788 5787 5785 5784 5782 5780 5779 5777 5775 5772 5770 5767 5764 5762 5760 5758
5836 5832 5829 5828 5824 5821 5820 5818 5816 5814 5812 5810 5807 5806 5806 5804 5803 5802 5801 5800 5799 5798 5797 5796 5795 5793 5792 5790 5789 5787 5785 5783 5781 5778 5776 5773 5771 5768 5765 5762 5759 5757 5754 5752
5838 5834 5831 5829 5826 5825 5825 5824 5821 5818 5816 5814 5813 5812 5811 5809 5808 5807 5805 5804 5803 5801 5800 5798 5796 5794 5793 5791 5789 5787 5784 5782 5780 5777 5774 5771 5767 5764 5761 5758 5755 5752 5750 5747
5841 5836 5836 5830 5829 5828 5828 5825 5824 5822 5821 5819 5818 5817 5815 5813 5812 5810 5809 5807 5805 5803 5801 5800 5798 5796 5794 5792 5790 5787 5785 5783 5780 5776 5773 5769 5766 5762 5758 5755 5752 5748 5745 5742
5847 5843 5837 5833 5831 5830 5829 5828 5826 5825 5824 5823 5822 5821 5819 5817 5816 5814 5812 5810 5808 5806 5805 5803 5800 5798 5796 5794 5792 5789 5787 5784 5781 5777 5773 5769 5765 5761 5757 5753 5749 5745 5741 5738
5852 5846 5841 5837 5834 5832 5830 5829 5828 5827 5826 5825 5824 5823 5822 5820 5819 5817 5815 5813 5811 5809 5807 5805 5803 5801 5799 5797 5794 5791 5788 5785 5782 5778 5774 5770 5765 5760 5756 5751 5747 5742 5738 5734
5856 5852 5846 5842 5838 5835 5832 5831 5830 5829 5827 5826 5825 5824 5823 5822 5821 5819 5817 5816 5814 5811 5809 5807 5805 5804 5801 5799 5796 5793 5790 5787 5783 5780 5776 5771 5766 5761 5756 5751 5746 5741 5735 5730
5860 5856 5851 5847 5842 5838 5835 5833 5831 5830 5828 5827 5826 5825 5824 5823 5822 5821 5819 5817 5816 5814 5811 5809 5807 5805 5803 5801 5798 5795 5793 5789 5785 5782 5777 5773 5768 5763 5758 5752 5746 5740 5733 5727
5862 5859 5855 5851 5846 5842 5839 5836 5833 5831 5829 5828 5827 5826 5825 5824 5823 5822 5820 5819 5817 5815 5813 5811 5809 5807 5805 5803 5800 5798 5795 5792 5788 5784 5780 5776 5771 5766 5760 5754 5747 5740 5734 5729
5862 5860 5857 5853 5850 5846 5842 5839 5835 5833 5830 5828 5827 5826 5825 5824 5823 5822 5821 5820 5818 5816 5814 5813 5811 5809 5807 5805 5802 5800 5797 5794 5790 5786 5782 5778 5774 5769 5763 5757 5751 5745 5739 5734
5861 5859 5857 5854 5851 5848 5845 5841 5838 5835 5831 5829 5827 5825 5824 5824 5823 5822 5821 5820 5819 5817 5816 5814 5812 5811 5809 5806 5804 5802 5799 5796 5792 5789 5785 5781 5777 5772 5767 5762 5756 5751 5746 5741
5859 5857 5855 5854 5851 5849 5846 5843 5840 5836 5833 5830 5827 5825 5824 5823 5822 5822 5821 5820 5819 5818 5816 5815 5813 5812 5810 5808 5806 5803 5801 5798 5795 5791 5788 5784 5780 5775 5771 5767 5762 5758 5753 5750
5855 5854 5853 5852 5850 5848 5846 5843 5840 5837 5834 5831 5828 5826 5824 5822 5821 5821 5820 5819 5818 5817 5816 5815 5814 5812 5811 5809 5807 5805 5803 5800 5797 5794 5791 5787 5783 5779 5776 5772 5768 5764 5761 5757
5851 5850 5850 5848 5847 5846 5844 5842 5840 5837 5835 5832 5829 5826 5824 5822 5820 5819 5818 5817 5817 5816 5816 5815 5814 5812 5811 5810 5809 5807 5804 5802 5799 5796 5793 5790 5786 5783 5779 5776 5773 5770 5767 5764
5846 5846 5846 5845 5844 5843 5842 5840 5839 5836 5834 5831 5829 5826 5823 5821 5818 5817 5816 5815 5814 5814 5814 5814 5813 5812 5812 5811 5809 5807 5806 5803 5801 5799 5796 5793 5790 5786 5783 5780 5777 5775 5772 5769
5841 5841 5841 5840 5840 5839 5838 5837 5836 5834 5832 5830 5827 5825 5822 5820 5817 5814 5812 5811 5811 5810 5811 5811 5812 5812 5811 5810 5809 5808 5807 5805 5803 5800 5798 5795 5792 5789 5786 5784 5781 5778 5776 5774
5834 5835 5835 5835 5835 5834 5834 5833 5832 5831 5830 5828 5826 5823 5821 5818 5815 5812 5809 5807 5807 5807 5808 5809 5810 5811 5811 5810 5809 5808 5807 5806 5804 5802 5799 5797 5794 5791 5789 5786 5784 5781 5779 5777
5827 5827 5828 5828 5829 5829 5828 5828 5828 5827 5826 5825 5823 5821 5819 5816 5813 5810 5807 5805 5804 5804 5805 5807 5808 5809 5809 5809 5809 5808 5807 5806 5804 5803 5800 5798 5795 5793 5791 5788 5786 5784 5782 5779
5818 5819 5820 5821 5821 5822 5822 5822 5822 5821 5821 5821 5820 5818 5816 5814 5812 5809 5807 5805 5804 5803 5804 5805 5806 5807 5807 5808 5808 5807 5806 5805 5804 5803 5801 5799 5796 5794 5792 5790 5788 5786 5784 5782
5808 5810 5811 5812 5813 5813 5814 5814 5814 5814 5815 5815 5814 5814 5813 5811 5809 5808 5806 5804 5803 5802 5803 5803 5804 5805 5805 5806 5805 5805 5805 5804 5803 5802 5800 5798 5796 5794 5793 5791 5789 5787 5785 5783
5796 5798 5800 5802 5803 5804 5805 5806 5807 5807 5808 5808 5808 5808 5807 5807 5806 5805 5803 5802 5801 5801 5801 5801 5802 5802 5803 5803 5802 5802 5802 5802 5802 5801 5799 5798 5796 5794 5792 5791 5789 5787 5786 5784
5783 5786 5788 5791 5792 5793 5795 5796 5798 5799 5800 5800 5801 5801 5801 5801 5801 5800 5800 5799 5798 5798 5798 5798 5798 5799 5799 5799 5799 5799 5799 5799 5799 5799 5798 5796 5795 5793 5792 5790 5788 5787 5785 5784
5768 5771 5775 5778 5780 5782 5783 5786 5788 5789 5791 5792 5793 5793 5794 5794 5794 5795 5795 5794 5794 5793 5793 5793 5793 5794 5794 5795 5796 5796 5796 5796 5796 5795 5795 5794 5793 5792 5790 5788 5787 5786 5784 5783
Wind_Speed
28 25 25 26 26 24 22 20 19 18 17 17 16 15 13 13 12 11 10 9 8 9 11 12 13 12 11 10 10 9 9 8 7 6 3 1 3 6 9 12 15 17 19 19
27 25 23 24 26 26 23 23 22 21 19 18 17 15 14 13 10 8 8 6 6 7 10 11 12 11 10 10 10 9 8 7 6 4 4 4 6 8 10 13 15 17 19 20
26 25 23 22 21 22 22 22 22 21 21 19 17 14 12 11 9 8 8 7 7 8 9 11 11 11 10 10 9 8 8 7 7 7 7 9 10 12 14 16 17 19 20 21
23 23 23 21 19 18 20 21 22 22 22 20 20 17 15 14 13 12 11 10 11 11 11 12 12 11 11 10 10 9 9 9 10 11 12 13 14 16 18 19 21 22 23 23
22 20 20 19 18 17 18 19 21 22 22 21 21 21 18 17 15 14 13 13 13 13 12 11 10 10 10 10 10 10 11 11 12 13 13 14 16 17 18 20 20 21 22 23
23 19 18 17 16 16 16 17 18 19 20 21 22 21 19 17 16 15 14 13 12 11 11 10 10 10 11 11 11 12 12 12 12 12 13 14 15 17 18 19 20 21 21 22
26 20 16 15 14 14 14 15 16 17 19 19 20 18 17 16 16 15 14 14 13 13 12 13 13 13 13 13 13 13 13 13 14 14 15 15 16 17 17 17 18 19 19 19
31 24 17 14 13 13 13 13 14 15 16 17 17 16 16 16 16 15 15 14 14 14 14 14 14 14 14 14 14 14 14 15 16 17 17 17 17 18 17 17 16 16 17 17
33 28 23 17 14 13 12 12 12 13 13 14 14 14 14 14 15 15 15 14 14 14 15 15 15 15 15 15 14 14 15 16 17 18 18 19 19 19 18 17 17 16 16 17
32 30 26 21 16 14 12 11 11 12 11 11 11 11 11 12 12 14 14 14 14 15 15 16 16 16 16 15 15 16 17 18 19 19 20 21 21 20 19 18 18 17 17 17
29 29 27 24 20 16 13 11 10 10 10 10 9 9 9 10 11 12 14 14 14 15 16 16 17 16 16 16 16 17 18 18 19 20 21 21 21 21 20 20 19 19 19 17
24 26 26 24 22 18 15 12 10 9 8 8 8 7 8 9 9 11 12 13 13 14 14 15 16 16 16 16 16 16 17 18 19 20 21 22 23 22 22 22 22 22 20 17
19 21 23 24 22 19 16 13 10 8 7 7 6 6 5 6 7 8 9 11 12 12 13 13 14 15 15 16 16 16 17 17 18 20 21 21 22 23 24 25 25 24 22 19
14 16 18 20 20 19 17 15 12 9 7 6 5 4 3 3 4 4 6 8 9 10 11 12 13 14 14 15 15 16 16 17 18 19 19 20 22 23 25 25 26 26 24 23
12 13 15 16 17 17 16 16 15 12 10 7 5 4 2 1 1 2 4 5 6 8 9 10 11 12 13 14 15 15 16 17 18 19 19 19 21 22 23 24 26 26 26 25
13 13 13 13 14 14 14 14 15 15 13 10 7 5 3 2 2 3 3 4 4 5 6 7 8 10 12 13 14 15 15 16 17 18 18 19 19 20 22 23 24 25 26 26
14 13 12 12 11 11 11 12 13 13 14 13 11 8 5 4 5 5 5 5 5 5 5 5 6 8 10 11 12 13 14 15 17 18 18 18 18 18 19 20 21 22 23 24
15 14 13 12 10 10 10 10 11 12 12 13 12 10 8 7 7 7 7 7 7 7 6 4 4 5 8 9 10 11 12 14 16 17 17 17 17 17 17 17 18 20 20 21
17 15 13 12 11 10 10 9 9 10 11 12 12 12 11 10 9 10 10 9 9 8 7 5 4 4 5 6 8 9 10 12 14 16 17 17 16 16 15 15 16 17 18 18
19 17 16 14 13 12 11 11 10 10 11 11 12 12 13 12 11 11 11 11 9 8 8 7 5 3 3 4 5 6 8 9 11 14 16 16 15 15 14 14 14 14 15 15
22 20 19 18 16 15 14 14 13 13 12 12 12 13 14 15 14 13 11 8 6 7 9 9 7 5 3 3 3 4 5 6 8 11 14 15 15 14 13 13 13 13 13 13
24 23 22 21 20 19 18 17 17 17 16 14 14 14 14 15 16 15 11 6 4 6 8 9 9 7 5 4 3 3 4 4 6 9 11 13 15 14 13 12 12 12 11 11
29 26 25 24 24 23 22 21 20 20 19 18 17 15 14 14 15 14 10 5 4 6 9 10 10 9 7 6 4 4 4 4 5 7 9 10 12 13 13 12 11 11 10 10
34 31 29 27 27 26 25 23 22 22 21 21 20 18 16 14 13 13 10 6 5 7 9 10 11 11 10 8 7 6 5 5 5 5 6 8 9 10 11 11 11 11 10 10
38 36 34 32 30 29 27 26 25 24 23 22 21 21 19 17 14 12 10 8 7 9 10 11 11 12 12 11 10 9 7 7 6 6 6 6 7 7 8 9 10 10 10 9
42 40 38 36 34 32 30 28 27 26 25 24 23 22 22 20 17 14 12 10 9 10 12 13 13 13 13 13 12 11 10 10 9 8 7 7 7 7 7 8 8 9 9 8
47 44 42 40 39 37 35 32 29 27 26 25 24 24 24 23 21 18 16 13 12 12 13 15 16 16 16 16 16 15 14 14 12 11 11 10 9 8 8 8 7 8 8 8
Wind_Direction
31 33 35 36 36 36 39 45 52 53 57 62 63 74 89 99 114 117 119 114 100 80 63 56 53 51 54 53 56 63 73 78 80 79 72 23 303 292 290 288 286 283 279 278
31 33 34 36 36 37 44 52 57 57 60 65 73 80 92 100 109 114 110 101 77 51 42 37 33 33 38 39 43 45 49 50 46 30 360 327 312 303 298 295 291 286 283 280
28 31 33 36 37 37 42 52 56 60 63 69 71 78 83 85 88 80 70 59 44 31 27 23 28 35 37 32 30 27 20 11 358 342 326 313 306 301 297 294 290 287 286 285
25 30 33 36 41 43 46 52 55 57 60 64 65 70 71 71 67 61 57 55 51 50 48 45 41 35 29 24 17 10 1 351 339 329 319 310 304 301 298 295 292 289 287 286
24 28 33 38 45 50 54 57 57 57 59 62 66 67 67 67 65 63 60 58 57 56 53 48 41 33 26 20 13 5 357 348 339 330 321 314 309 304 301 297 294 292 289 287
26 28 33 37 45 52 58 59 55 54 57 59 60 59 58 61 61 61 60 59 58 56 53 49 45 39 33 27 20 13 5 357 348 339 330 323 317 312 307 302 297 294 291 289
30 34 38 44 49 53 57 58 55 53 55 55 54 52 53 56 59 58 56 54 51 46 42 40 38 35 32 28 24 20 15 8 1 355 348 341 334 327 320 314 308 303 298 293
34 37 43 52 56 58 61 62 59 57 56 54 52 51 52 54 54 52 50 47 43 38 36 34 34 34 36 35 32 27 21 16 11 7 2 355 349 342 336 330 323 317 310 304
35 39 45 55 61 62 64 64 62 59 57 55 53 54 54 54 51 48 45 45 45 43 42 42 43 44 43 41 38 33 27 22 18 15 10 5 360 354 348 341 335 328 321 314
33 37 42 49 57 62 64 62 59 56 54 53 53 53 54 55 51 47 44 46 46 46 46 47 47 45 44 43 40 35 30 27 25 21 17 13 9 5 0 354 348 341 333 325
30 33 38 42 47 54 56 57 55 50 48 46 47 48 49 50 47 44 43 43 43 44 44 43 42 42 43 41 39 35 32 30 27 24 21 18 14 11 7 2 356 350 345 338
23 28 32 35 38 44 48 51 51 46 41 38 39 41 41 42 41 40 40 40 39 38 38 38 39 40 40 39 38 35 33 31 29 26 23 19 17 15 13 9 6 3 1 360
12 20 25 29 33 37 40 43 45 45 40 34 31 33 34 37 38 36 36 37 37 36 34 35 36 36 37 36 35 33 31 29 27 25 23 21 20 19 18 17 17 18 22 26
353 7 15 20 25 30 34 35 34 34 32 28 26 28 30 33 32 29 29 32 34 33 33 33 33 33 34 34 32 29 27 26 25 24 23 23 23 23 24 25 27 32 39 44
330 345 358 6 14 20 26 28 26 21 16 11 9 9 358 346 352 0 5 12 20 25 28 30 30 30 30 30 28 25 25 26 26 25 24 26 27 28 30 33 35 40 47 53
311 323 335 348 358 7 16 23 26 24 18 10 1 350 327 302 302 313 320 331 345 0 13 22 25 26 25 25 27 26 27 29 29 27 26 28 31 34 36 39 42 46 51 56
297 306 316 326 337 348 0 12 19 21 21 18 12 359 338 312 299 298 297 301 311 322 338 356 14 19 19 21 27 30 32 33 32 29 27 28 32 37 40 43 46 49 53 57
291 296 302 308 314 322 334 350 5 12 15 15 13 7 351 326 305 298 296 295 292 295 302 314 343 5 12 19 30 36 38 37 34 29 26 27 31 36 40 44 47 51 54 57
285 287 290 297 299 301 309 321 338 353 1 5 7 4 354 338 314 302 299 297 290 277 276 281 301 337 359 15 32 42 44 39 34 29 26 25 27 33 39 43 46 49 52 55
279 279 279 283 287 287 289 296 309 325 340 349 353 355 353 345 333 316 307 299 286 269 255 252 263 293 333 5 29 41 41 35 30 26 24 22 23 26 33 40 43 45 47 51
273 273 272 274 277 279 279 281 288 299 312 326 335 343 347 348 346 338 326 309 279 254 237 233 240 257 288 329 7 23 27 23 20 19 20 21 21 22 24 30 36 40 41 44
269 269 269 269 270 272 273 274 276 282 291 301 312 324 336 344 349 348 343 321 267 228 221 223 230 242 261 287 321 346 359 4 6 8 12 17 20 20 20 21 25 31 36 39
266 267 267 267 267 267 269 270 271 273 278 284 293 303 316 331 342 348 343 319 248 222 219 222 229 238 251 267 288 310 325 338 348 355 2 10 16 18 18 16 17 22 28 33
265 266 267 267 266 266 266 267 268 269 271 275 280 286 295 308 323 337 336 311 258 233 228 229 233 239 248 257 269 283 295 308 321 334 346 357 7 13 14 13 11 11 16 23
263 264 265 265 265 265 265 264 264 265 267 269 272 275 280 287 298 312 321 308 275 250 240 238 240 243 249 255 261 266 274 284 296 307 319 333 344 353 1 5 6 5 5 9
260 261 263 263 263 263 262 262 261 262 262 264 265 267 269 273 280 287 295 298 284 264 252 248 247 248 251 255 257 261 266 272 280 288 295 305 316 325 332 342 351 356 357 0
257 258 260 261 260 260 259 259 259 261 261 261 262 262 262 264 267 272 277 281 281 272 262 256 252 252 252 255 258 262 265 269 272 276 281 287 294 303 310 315 323 334 342 347